Location: Chauffour
(48.5041°N, 2.1696°E)
Time: 06:38:06
(UTC+00:00)

Daily predictions for brighter satellites

Satellite Brightness Start Highest point End
(mag) Time Altitude Azimuth Time Altitude Azimuth Time Altitude Azimuth
BREEZE-M (TANK) 3.7 20:05:22 10° WSW 20:08:57 79° SSE 20:22:14 10° ENE
Cosmos 1072 Rocket 4.5 20:10:16 10° S 20:16:20 76° E 20:22:29 10° NNE
Cosmos 2344 3.5 20:09:41 10° SSW 20:17:03 63° ESE 20:24:36 10° NE
BREEZE-M DEB (TANK) 3.9 20:17:59 10° W 20:21:26 87° N 20:33:03 10° E
SJ 16-02 1.6 20:18:35 10° S 20:22:45 46° ESE 20:26:57 10° NNE
Timation 2 Rocket 4.3 20:17:26 10° NNW 20:24:02 83° WSW 20:30:51 10° SSE
SPOT 1/Viking Rocket 3.6 20:19:16 10° SSE 20:24:26 85° ENE 20:29:37 10° NNW
NOSS 2-1 (D) 4.4 20:22:52 10° SSE 20:25:00 16° ESE 20:27:02 10° ENE
Cosmos 2297 Rocket 4.3 20:21:13 10° NW 20:25:29 22° WSW 20:29:44 10° SSW
Cosmos 1536 3.7 20:26:15 10° NNW 20:30:11 51° W 20:34:06 10° S
SL-4 R/B 4.2 20:28:04 10° W 20:31:17 19° SW 20:34:22 10° S
Okean 1 3.5 20:27:57 10° S 20:31:51 54° E 20:35:48 10° NNE
Ariane Rocket 3.1 20:26:48 10° SSE 20:31:53 89° WSW 20:37:01 10° NNW
PSLV R/B 4.1 20:28:19 10° N 20:32:23 74° WNW 20:36:23 10° SSW
Meteor 1-19 Rocket 4.3 20:27:35 10° S 20:32:51 56° E 20:38:09 10° NNE
CZ-4C R/B 4.4 20:30:17 10° NW 20:35:47 28° NNE 20:42:13 10° ENE
Meteor 2-9 Rocket 4.3 20:32:33 10° N 20:38:21 78° ENE 20:43:56 10° SSE
ISS -3.5 20:35:10 10° WNW 20:38:28 56° SSW 20:41:29 12° SE
Cosmos 44 Rocket 3.3 20:34:36 10° NW 20:39:20 75° NE 20:43:49 11° SE
Cosmos 1184 Rocket 3.6 20:39:24 10° SSW 20:42:19 48° WNW 20:45:16 10° N
RESURS DK-1 2.3 20:39:28 10° SSW 20:43:32 65° ESE 20:47:38 10° NE
ARGOS Delta rocket 4.4 20:38:32 10° N 20:44:03 78° WNW 20:49:26 10° SSW
Cosmos 921 Rocket 3.8 20:39:47 10° NNW 20:44:12 53° WSW 20:48:32 10° S
Cosmos 2034 Rocket 4.0 20:38:57 10° S 20:45:15 81° E 20:51:39 10° N
Cosmos 1340 3.9 20:44:07 10° SSW 20:47:42 43° WNW 20:51:18 10° N
SL-16 R/B 3.0 20:43:56 10° SSE 20:48:50 31° ESE 20:53:46 10° NE
ATLAS CENTAUR R/B 3.4 20:52:22 10° NNW 20:56:31 26° NNE 21:00:32 10° E
Cosmos 1975 2.9 20:56:47 10° N 21:00:50 64° E 21:04:09 14° SSE
Resurs 01 Rocket 3.1 20:57:40 10° SSW 21:01:41 34° W 21:05:45 10° NNW
CARTOSAT-1 3.8 20:58:55 10° S 21:03:12 67° WSW 21:07:31 10° NNW
ATLAS 2AS CENTAUR R/B 3.0 20:55:33 10° SW 21:03:22 84° SE 21:10:56 10° NE
CZ-4B R/B 3.3 21:00:47 10° N 21:03:37 30° WNW 21:06:24 10° SW
Cosmos 1869 Rocket 3.9 21:00:18 10° NNW 21:04:47 68° W 21:09:12 10° S
Spot 2 Rocket 3.5 21:00:51 13° SSE 21:05:24 76° ENE 21:10:28 10° NNW
Cosmos 1777 Rocket 4.0 21:00:42 10° SSW 21:05:55 85° ESE 21:11:12 10° NNE
Cosmos 2278 3.8 21:04:51 10° SSW 21:10:31 86° WNW 21:16:15 10° NNE
Cosmos 2360 Rocket 3.4 21:08:17 15° SE 21:11:14 22° E 21:15:30 10° NE
Cosmos 2263 Rocket 2.6 21:06:16 10° NW 21:11:45 56° WSW 21:16:41 12° S
USA 267 4.4 21:06:40 10° ENE 21:12:46 43° N 21:18:50 10° WNW
SL-24 R/B - RUBIN 2 3.8 21:11:53 10° NW 21:16:14 64° SW 21:19:34 18° SSE
H-2A R/B 4.5 21:13:31 10° N 21:16:46 23° WNW 21:20:01 10° WSW
Cosmos 2228 Rocket 3.4 21:13:22 10° SSW 21:17:56 71° W 21:22:29 10° N
Cosmos 158 Rocket 4.2 21:14:06 10° NNW 21:19:13 67° WSW 21:23:33 15° S
SPOT 3 Rocket 4.1 21:14:59 10° S 21:20:01 54° W 21:25:05 10° NNW
Cosmos 1441 Rocket 4.0 21:19:21 20° SE 21:21:10 32° E 21:24:30 10° NNE
Meteor 1-18 Rocket 4.3 21:16:12 10° S 21:21:54 87° WNW 21:27:32 10° N
Iridium 2 4.5 21:18:25 10° N 21:21:56 36° E 21:23:53 21° SE
OE (NEXTSAT) 4.3 21:18:52 10° W 21:22:06 55° S 21:24:24 18° ESE
ATLAS 3B R/B 2.9 21:15:22 10° NW 21:22:45 89° SW 21:28:52 17° SE
NOSS 2-1 (E) 2.8 21:20:40 10° SSW 21:23:52 56° SE 21:27:04 10° NE
Cosmos 1378 3.3 21:20:50 10° SSW 21:24:28 72° W 21:28:08 10° N
Helios 1A Rocket 3.3 21:23:00 14° S 21:26:18 56° WSW 21:30:16 10° NNW
Cosmos 1707 Rocket 3.5 21:26:56 12° S 21:31:00 88° E 21:35:25 10° N
Cosmos 1346 Rocket 2.8 21:31:56 14° S 21:35:24 88° W 21:39:26 10° NNE
ERS-1 Rocket 3.1 21:31:59 16° S 21:35:58 70° WSW 21:41:02 10° NNW
Cosmos 1092 Rocket 4.4 21:30:50 10° NNW 21:36:53 60° W 21:42:35 12° S
Meteor 2-15 Rocket 4.5 21:33:03 16° S 21:37:57 64° E 21:43:59 10° NNE
Terra 1.8 21:35:23 19° S 21:38:47 82° WSW 21:43:35 10° NNW
Cosmos 1356 3.9 21:39:30 29° SE 21:40:33 38° E 21:43:38 10° NNE
Cosmos 1980 Rocket 3.8 21:37:05 10° WSW 21:42:17 36° NW 21:47:32 10° NNE
ARIANE 5 R/B 2.6 21:39:35 22° SSE 21:42:29 90° WNW 21:47:02 10° NNW
BREEZE-M DEB (TANK) 1.9 21:41:28 10° W 21:43:38 69° N 21:45:32 16° E
Cosmos 2292 Rocket 4.3 21:42:13 10° NNW 21:44:49 28° W 21:46:51 14° SSW
Cosmos 1634 Rocket 4.1 21:40:03 10° SSW 21:46:15 75° W 21:52:28 10° N
SPOT 5 3.7 21:42:54 14° S 21:47:13 51° W 21:52:10 10° NNW
Cosmos 1844 Rocket 2.8 21:45:00 10° NNW 21:50:36 71° ENE 21:54:07 23° SE
Cosmos 2322 Rocket 2.1 21:46:24 11° SSW 21:51:43 68° ESE 21:57:18 10° NNE
Meteor 1-4 Rocket 2.4 21:48:18 10° N 21:51:48 78° ENE 21:53:16 33° SSE
USA 81 4.3 21:47:17 13° SSW 21:52:02 70° W 21:57:19 10° N
Geosat 4.2 21:53:02 23° SE 21:56:11 67° ENE 22:01:12 10° NNW
Cosmos 1733 Rocket 3.6 21:53:01 10° NNW 21:57:23 56° W 22:00:15 20° SSW
SJ 16-02 3.8 21:58:04 10° WSW 22:01:33 23° NW 22:05:03 10° N
Cosmos 1805 3.2 21:57:59 10° N 22:01:54 89° E 22:03:37 32° S
Cosmos 2333 Rocket 3.0 22:00:15 24° SE 22:02:23 32° ESE 22:07:20 10° NE
NOSS 2-1 (C) 3.8 22:01:29 10° WSW 22:04:37 46° NW 22:07:49 10° NNE
Cosmos 1733 3.1 22:01:18 10° N 22:05:06 83° W 22:06:39 34° S
Meteor 1-12 Rocket 4.4 21:59:30 10° N 22:05:28 73° ENE 22:08:52 26° SSE
Cosmos 1937 Rocket 3.9 22:06:03 27° SSE 22:08:24 44° ESE 22:13:24 10° NE
Cosmos 923 Rocket 4.1 22:03:28 10° NNW 22:08:49 79° WSW 22:11:46 27° SSE
Cosmos 1908 Rocket 3.5 22:06:46 10° N 22:11:08 76° E 22:13:01 33° SSE
Cosmos 2219 Rocket 3.1 22:11:41 25° SE 22:13:23 29° ESE 22:18:09 10° NE
Cosmos 1655 Rocket 4.0 22:07:39 10° N 22:13:55 72° E 22:17:31 27° SSE
Cosmos 1862 Rocket 4.2 22:10:46 16° SSW 22:14:12 54° WNW 22:18:38 10° N
Meteor 2-10 3.9 22:09:09 10° NNW 22:14:25 89° ENE 22:17:05 29° S
ISS -1.2 22:13:36 10° WSW 22:14:24 11° SW 22:14:24 11° SW
SAR-Lupe-4 3.5 22:11:11 10° NNE 22:14:48 82° WNW 22:16:24 31° SSW
NOSS 2-1 (D) 4.3 22:12:00 10° WSW 22:15:01 37° NW 22:18:08 10° NNE
ADEOS Rocket 4.4 22:12:46 13° ESE 22:16:51 27° ENE 22:21:56 10° N
USA 215 4.0 22:12:48 10° ENE 22:18:30 31° SE 22:20:39 26° SSE
ERS-2 4.2 22:16:45 10° ENE 22:18:40 14° E 22:18:40 14° E
Cosmos 1766 3.2 22:16:06 10° N 22:20:04 75° E 22:21:25 39° SSE
Cosmos 1844 3.7 22:14:57 10° NNW 22:20:48 84° WSW 22:23:54 29° SSE
Cosmos 990 Rocket 4.1 22:17:24 14° SSW 22:21:54 76° WNW 22:27:10 10° NNE
Iridium 4 Rocket 3.4 22:20:05 10° N 22:24:45 69° E 22:27:00 32° SSE
STPSAT 2 (USA 217) 4.5 22:22:49 29° SSW 22:25:03 74° ESE 22:29:34 10° NNE
CZ-4C R/B 3.3 22:18:42 10° NW 22:25:38 63° NE 22:32:37 15° ESE
Cosmos 1726 2.0 22:23:13 10° N 22:26:55 80° E 22:27:54 46° SSE
ALOS 2 3.8 22:26:16 22° ESE 22:28:14 33° ENE 22:32:10 10° N
Cosmos 2112 Rocket 4.0 22:23:59 10° NNW 22:29:20 81° WSW 22:31:51 32° SSE
Cosmos 2242 Rocket 3.8 22:27:40 35° SSE 22:29:22 60° E 22:33:52 10° NNE
Cosmos 1680 Rocket 3.6 22:24:24 10° NNW 22:29:42 70° WSW 22:32:12 31° S
Cosmos 1867 4.4 22:30:55 28° SE 22:32:01 31° ESE 22:36:45 10° NE
Cosmos 1707 4.1 22:31:47 24° ESE 22:32:18 24° E 22:35:30 10° NE
SL-16 R/B 3.1 22:27:15 10° SW 22:32:44 49° NW 22:38:15 10° NNE
ATLAS CENTAUR R/B 1.7 22:30:56 10° NW 22:35:50 75° SW 22:37:37 37° SSE
Cosmos 2266 Rocket 4.0 22:29:42 10° N 22:35:57 79° W 22:39:21 28° S
Iridium 51 4.4 22:37:07 38° SW 22:38:12 58° W 22:41:48 10° N
Cosmos 1461 3.3 22:35:20 10° NNW 22:39:27 59° NE 22:41:20 30° ESE
Okean 3 3.4 22:38:43 40° S 22:40:12 83° E 22:44:30 10° N
Cosmos 858 Rocket 4.5 22:38:13 30° S 22:40:49 73° ESE 22:46:08 10° NNE
Cosmos 1898 Rocket 3.6 22:38:09 20° SSW 22:41:53 77° WNW 22:47:13 10° NNE
Okean 1-7 3.2 22:41:19 32° SSW 22:43:18 71° WNW 22:47:40 10° N
H-2A R/B 4.0 22:39:58 10° NNE 22:43:50 39° E 22:44:35 36° SE
Cosmos 2237 Rocket 4.0 22:45:22 14° ESE 22:46:30 15° E 22:49:32 10° ENE
Cosmos 1818 3.8 22:42:37 10° NW 22:47:57 54° WSW 22:50:03 34° S
Cosmos 1626 4.0 22:48:06 18° E 22:48:22 18° E 22:50:53 10° NE
Cosmos 1238 Rocket 4.4 22:47:50 10° NNE 22:49:49 16° ENE 22:50:13 16° E
Cosmos 2360 Rocket 2.5 22:49:58 15° SW 22:54:42 66° WNW 23:00:22 10° NNE
COSMOS 2428 3.2 22:52:54 33° SSE 22:54:45 44° ESE 23:00:07 10° NE
ATLAS 2AS CENTAUR R/B 4.4 22:48:01 10° W 22:55:07 38° NNW 23:01:56 10° NE
USA 267 3.7 22:48:45 10° ESE 22:55:12 63° NNE 23:01:40 10° NW
SL-08 ROCKET BODY 4.5 22:49:23 10° N 22:55:15 64° ENE 22:57:59 32° SSE
USA 229 DEB 4.3 22:48:22 10° NW 22:55:35 63° NE 23:02:20 14° ESE
USA 229 4.3 22:48:28 10° NW 22:55:40 63° NE 23:02:27 14° ESE
Cosmos 1470 2.7 22:52:01 10° N 22:55:53 76° E 22:56:43 53° SSE
Sich 1 Rocket 4.1 22:54:39 10° N 22:58:56 48° ENE 23:00:22 35° SE
Cosmos 1908 4.5 23:00:18 10° N 23:03:39 29° ENE 23:04:36 26° E
USA 290 3.4 23:04:55 30° E 23:04:55 30° E 23:07:18 10° NE
Cosmos 2333 4.1 23:01:59 26° SSW 23:05:18 86° WNW 23:10:59 10° NNE
Okean 2 4.0 23:07:32 37° ESE 23:08:14 40° E 23:12:05 10° NNE
Cosmos 1674 3.4 23:10:30 36° ESE 23:10:51 37° E 23:14:21 10° NNE
Cosmos 372 Rocket 4.0 23:08:30 31° SSW 23:11:03 80° WNW 23:16:16 10° NNE
Cosmos 1437 Rocket 4.4 23:08:32 10° NNE 23:11:37 24° ENE 23:12:47 20° E
ATLAS 3B R/B 4.3 23:07:05 10° WNW 23:12:43 24° WSW 23:16:07 17° SW
Cosmos 494 Rocket 4.4 23:09:06 10° NNW 23:14:09 55° ENE 23:16:34 29° SE
Cosmos 1842 3.7 23:13:53 39° SW 23:14:59 55° WNW 23:18:49 10° N
USA 305 3.9 23:16:56 30° ESE 23:16:56 30° ESE 23:19:46 10° ENE
Cosmos 2278 Rocket 2.8 23:10:29 10° NNW 23:16:03 51° NE 23:19:33 22° ESE
Terra 4.3 23:16:09 10° W 23:17:18 11° W 23:18:28 10° WNW
Cosmos 1048 Rocket 4.1 23:16:13 10° NNW 23:21:23 69° ENE 23:23:34 34° SE
Meteor 1-21 4.3 23:19:31 36° S 23:21:58 73° E 23:27:47 10° NNE
Gblst 52 Del rocket 4.4 23:15:44 10° WSW 23:22:11 79° NNW 23:27:55 10° ENE
NOSS 3-1 (A) 4.0 23:14:54 10° NW 23:22:18 86° SW 23:28:09 23° SE
NOSS 3-1 (C) 4.3 23:21:00 10° NW 23:28:18 57° WSW 23:32:39 30° S
Cosmos 1953 3.5 23:27:48 10° N 23:31:30 34° ENE 23:32:39 28° ESE
Cosmos 1125 Rocket 4.2 23:30:32 34° SE 23:31:54 40° ESE 23:36:44 10° NE
Cosmos 1378 Rocket 4.2 23:31:56 37° SE 23:32:57 44° E 23:37:11 10° NNE
Cosmos 1844 Rocket 4.3 23:29:54 10° NW 23:33:54 21° W 23:35:47 17° SW
NOSS 0 Rocket 4.3 23:32:10 34° SSE 23:34:24 48° ESE 23:40:21 10° NE
Cosmos 2221 Rocket 3.6 23:34:35 49° SSE 23:35:39 71° E 23:40:03 10° NNE
Cosmos 1553 Rocket 4.0 23:33:23 35° S 23:36:05 74° E 23:42:18 10° NNE
Cosmos 2322 Rocket 4.1 23:31:36 10° WSW 23:36:16 26° NW 23:40:57 10° N
SL-16 R/B 4.3 23:34:34 11° ESE 23:36:22 12° E 23:38:31 10° ENE
NOSS 2-2 (D) 4.2 23:32:22 10° NW 23:37:18 87° NE 23:41:27 24° SE
Cosmos 1980 4.4 23:37:01 32° SE 23:38:38 39° ESE 23:43:51 10° NE
Cosmos 2322 4.0 23:40:23 25° SW 23:43:48 66° WNW 23:49:32 10° NNE
Cosmos 2333 Rocket 3.0 23:42:12 17° SW 23:46:27 48° NW 23:51:58 10° NNE
Cosmos 1758 3.5 23:44:17 10° NNW 23:48:13 58° W 23:48:53 50° SW
Cosmos 371 Rocket 3.7 23:47:03 40° SSE 23:48:16 50° ESE 23:52:57 10° NNE
ERS-2 2.7 23:48:48 10° N 23:52:19 49° WNW 23:53:03 42° WSW
Cosmos 1242 Rocket 3.1 23:49:49 10° NNW 23:53:15 42° W 23:53:25 42° WSW
